TimeEDT,TemperatureF,Dew PointF,Humidity,Sea Level PressureIn,VisibilityMPH,Wind Direction,Wind SpeedMPH,Gust SpeedMPH,PrecipitationIn,Events,Conditions,WindDirDegrees,DateUTC
12:51 AM,75.0,66.9,76,29.87,10.0,SW,11.5,-,N/A,,Partly Cloudy,220,2013-05-22 04:51:00
1:51 AM,73.0,66.9,81,29.86,10.0,SW,10.4,-,N/A,,Scattered Clouds,220,2013-05-22 05:51:00
2:51 AM,73.0,66.9,81,29.85,10.0,SSW,9.2,-,N/A,,Scattered Clouds,200,2013-05-22 06:51:00
3:51 AM,72.0,66.9,84,29.86,10.0,SW,10.4,-,N/A,,Mostly Cloudy,220,2013-05-22 07:51:00
4:51 AM,71.1,66.9,87,29.86,10.0,Calm,Calm,-,N/A,,Mostly Cloudy,0,2013-05-22 08:51:00
5:51 AM,69.1,64.0,84,29.88,8.0,East,8.1,-,N/A,,Mostly Cloudy,100,2013-05-22 09:51:00
6:51 AM,63.0,59.0,87,29.92,7.0,NNE,9.2,-,N/A,,Overcast,30,2013-05-22 10:51:00
7:51 AM,63.0,59.0,87,29.93,6.0,NNE,5.8,-,N/A,,Overcast,20,2013-05-22 11:51:00
8:09 AM,62.6,59.0,88,29.94,6.0,NE,3.5,-,N/A,,Overcast,50,2013-05-22 12:09:00
8:51 AM,63.0,59.0,87,29.94,4.0,ESE,3.5,-,N/A,,Overcast,110,2013-05-22 12:51:00
8:53 AM,62.6,59.0,88,29.93,2.0,East,5.8,-,N/A,,Overcast,90,2013-05-22 12:53:00
9:12 AM,62.6,60.8,94,29.93,1.0,ESE,4.6,-,N/A,,Overcast,110,2013-05-22 13:12:00
9:47 AM,64.4,60.8,88,29.93,1.0,East,4.6,-,0.00,,Light Drizzle,90,2013-05-22 13:47:00
9:51 AM,63.0,60.1,90,29.93,1.0,Variable,3.5,-,0.00,,Light Drizzle,0,2013-05-22 13:51:00
10:51 AM,64.0,60.1,87,29.94,1.0,Calm,Calm,-,0.00,,Light Drizzle,0,2013-05-22 14:51:00
10:55 AM,64.4,60.8,88,29.93,2.0,NE,3.5,-,0.00,,Haze,40,2013-05-22 14:55:00
11:02 AM,64.4,60.8,88,29.93,1.5,Calm,Calm,-,0.00,,Overcast,0,2013-05-22 15:02:00
11:41 AM,66.2,60.8,83,29.92,1.5,Calm,Calm,-,0.00,,Haze,0,2013-05-22 15:41:00
11:51 AM,66.9,61.0,81,29.92,2.5,Calm,Calm,-,0.00,,Haze,0,2013-05-22 15:51:00
12:51 PM,71.1,62.1,73,29.91,2.5,NE,3.5,-,N/A,,Haze,40,2013-05-22 16:51:00
1:51 PM,73.0,64.9,76,29.89,2.5,Calm,Calm,-,N/A,,Haze,0,2013-05-22 17:51:00
2:36 PM,73.4,64.4,73,29.88,5.0,Calm,Calm,-,N/A,,Haze,0,2013-05-22 18:36:00
2:51 PM,75.0,64.0,69,29.88,6.0,Variable,3.5,-,N/A,,Haze,0,2013-05-22 18:51:00
3:47 PM,78.8,69.8,74,29.86,5.0,SSE,6.9,-,N/A,,Haze,160,2013-05-22 19:47:00
3:51 PM,78.1,68.0,71,29.86,5.0,SSW,8.1,-,N/A,,Haze,200,2013-05-22 19:51:00
4:51 PM,79.0,68.0,69,29.85,6.0,SE,6.9,-,N/A,,Haze,140,2013-05-22 20:51:00
5:51 PM,78.1,68.0,71,29.83,7.0,East,5.8,-,N/A,,Mostly Cloudy,80,2013-05-22 21:51:00
6:51 PM,77.0,66.0,69,29.83,9.0,East,4.6,-,N/A,,Mostly Cloudy,90,2013-05-22 22:51:00
7:51 PM,73.9,64.9,73,29.84,9.0,East,4.6,-,N/A,,Mostly Cloudy,80,2013-05-22 23:51:00
8:51 PM,71.1,64.0,78,29.85,10.0,NE,4.6,-,N/A,,Mostly Cloudy,50,2013-05-23 00:51:00
9:51 PM,73.9,64.0,71,29.88,10.0,Calm,Calm,-,N/A,,Mostly Cloudy,0,2013-05-23 01:51:00
10:51 PM,75.0,68.0,79,29.88,10.0,South,8.1,-,N/A,,Mostly Cloudy,190,2013-05-23 02:51:00
11:51 PM,75.0,68.0,79,29.88,10.0,South,6.9,-,N/A,,Mostly Cloudy,180,2013-05-23 03:51:00